Location: C�mpuri de-Sus
(45.9500°N, 22.5500°E)
Time: 17:19:27
(UTC+00:00)

Cosmos 839 Rocket - Pass Details

Date: 01 December 2023
Orbit: 960 x 2093 km, 65.9° (Epoch: 20 February)

Event Time Altitude Azimuth Distance (km) Brightness Sun altitude
Exits shadow 03:32:31 16° 234° (SW) 4,016 6.8 -23.3°
Maximum altitude 03:42:48 64° 312° (NW) 2,262 5.6 -21.5°
Drops below altitude 10° 03:54:34 10° 34° (NE) 4,374 7.6 -19.5°
Sets 03:57:49 0° 38° (NE) 5,268 8.2 -19.0°
